Weather History for Twin Falls, ID

Change the Weather History Date:

Tuesday, January 14, 2014

  Actual Average Record
Temperature  
Mean Temperature 41 °F -  
Max Temperature 50 °F 37 °F 53 °F (2006)
Min Temperature 32 °F 22 °F 1 °F (2007)
Degree Days  
Heating Degree Days 24 35  
Month to date heating degree days 400 504  
Since 1 July heating degree days 2946 3071  
Cooling Degree Days 0 0  
Month to date cooling degree days 0 0  
Year to date cooling degree days 0 0  
Moisture  
Dew Point 24 °F    
Average Humidity 55    
Maximum Humidity 70    
Minimum Humidity 39    
Precipitation  
Precipitation 0.00 in 0.03 in 0.53 in (1990)
Month to date precipitation 0.28 0.59  
Year to date precipitation 0.28 0.59  
Sea Level Pressure  
Sea Level Pressure 30.57 in    
Wind  
Wind Speed 14 mph (SW)    
Max Wind Speed 23 mph    
Max Gust Speed 29 mph    
Visibility 10 miles    
Events      
T = Trace of Precipitation, MM = Missing Value Source: NWS Daily Summary

Daily Weather History Graph

Daily Weather History Graph

Search for Another Location

Airport:

Trip Planner

Search our weather history database for the weather conditions in past years. The results will help you decide how hot, cold, wet, or windy it might be!

Date:

Astronomy

Jan. 14, 2014 Rise Set
Actual Time 8:05 AM MST 5:29 PM MST
Civil Twilight 7:34 AM MST 6:00 PM MST
Nautical Twilight 6:59 AM MST 6:35 PM MST
Astronomical Twilight 6:25 AM MST 7:08 PM MST
Moon 4:38 PM MST (1/14) 6:42 AM MST (1/14)
Length of Visible Light 10h 26m
Length of Day
9h 23m
Waxing Gibbous, 98% of the Moon is Illuminated
Jan 14
Waxing Gibbous
Jan 15
Full
Jan 23
Last Quarter
Jan 30
New
Feb 6
First Quarter

Hourly Weather History & Observations

Time (MST) Temp. Windchill Dew Point Humidity Pressure Visibility Wind Dir Wind Speed Gust Speed Precip Events Conditions
12:53 AM 37.0 °F 26.4 °F 26.1 °F 65% 30.47 in 10.0 mi WSW 20.7 mph - N/A   Clear
1:53 AM 37.0 °F 26.7 °F 26.1 °F 65% 30.47 in 10.0 mi SW 19.6 mph - N/A   Clear
2:53 AM 36.0 °F 27.5 °F 26.1 °F 67% 30.51 in 10.0 mi SW 12.7 mph - N/A   Clear
3:53 AM 35.1 °F 25.5 °F 26.1 °F 70% 30.51 in 10.0 mi SSW 15.0 mph - N/A   Clear
4:53 AM 35.1 °F 26.4 °F 25.0 °F 67% 30.55 in 10.0 mi SW 12.7 mph - N/A   Clear
5:53 AM 35.1 °F 25.9 °F 24.1 °F 64% 30.57 in 10.0 mi SSW 13.8 mph - N/A   Clear
6:53 AM 33.1 °F 23.4 °F 24.1 °F 70% 30.59 in 10.0 mi SSW 13.8 mph - N/A   Clear
7:53 AM 34.0 °F 23.4 °F 24.1 °F 67% 30.59 in 10.0 mi SW 17.3 mph - N/A   Clear
8:53 AM 35.1 °F 26.9 °F 24.1 °F 64% 30.60 in 10.0 mi SW 11.5 mph - N/A   Clear
9:53 AM 37.9 °F 29.2 °F 24.1 °F 57% 30.63 in 10.0 mi SW 15.0 mph - N/A   Clear
10:53 AM 43.0 °F 34.8 °F 25.0 °F 49% 30.63 in 10.0 mi WSW 18.4 mph - N/A   Clear
11:53 AM 46.0 °F 39.3 °F 26.1 °F 46% 30.61 in 10.0 mi West 16.1 mph - N/A   Clear
12:53 PM 46.9 °F - 24.1 °F 41% 30.58 in 10.0 mi West 21.9 mph - N/A   Clear
1:53 PM 48.9 °F - 24.1 °F 38% 30.57 in 10.0 mi West 17.3 mph - N/A   Clear
2:53 PM 48.9 °F - 24.1 °F 38% 30.56 in 10.0 mi West 13.8 mph - N/A   Clear
3:53 PM 48.9 °F - 24.1 °F 38% 30.56 in 10.0 mi West 11.5 mph - N/A   Clear
4:53 PM 45.0 °F 41.2 °F 25.0 °F 46% 30.58 in 10.0 mi WSW 6.9 mph - N/A   Clear
5:53 PM 36.0 °F 29.0 °F 24.1 °F 62% 30.58 in 10.0 mi WSW 9.2 mph - N/A   Clear
6:53 PM 36.0 °F 29.0 °F 25.0 °F 64% 30.59 in 10.0 mi SSW 9.2 mph - N/A   Clear
7:53 PM 33.1 °F 24.9 °F 25.0 °F 72% 30.60 in 10.0 mi South 10.4 mph - N/A   Clear
8:53 PM 37.9 °F 30.5 °F 25.0 °F 60% 30.58 in 10.0 mi SSW 11.5 mph - N/A   Clear
9:53 PM 36.0 °F 27.1 °F 23.0 °F 59% 30.57 in 10.0 mi SSW 13.8 mph - N/A   Clear
10:53 PM 37.9 °F 29.6 °F 19.9 °F 48% 30.56 in 10.0 mi SSW 13.8 mph - N/A   Clear
11:53 PM 37.9 °F 29.6 °F 19.0 °F 47% 30.54 in 10.0 mi SSW 13.8 mph - N/A   Clear